CW0101 Weather Reports


time (UTC)temp
C
wind
direction
speed
KPH
gust
KPH
rain 1hr
cm
rain 24hr
cm
rain mn
cm
humidity
%
barometer
mb
20260507203339 12 277 12.9 17.7 0.00 0.00 0.00 33 1011.2
20260507202835 11 311 12.9 27.4 0.00 0.00 0.00 34 1011.1
20260507202331 11 291 17.7 27.4 0.00 0.00 0.00 34 1011.4
20260507201827 11 266 12.9 19.3 0.00 0.00 0.00 34 1011.4
20260507201322 11 301 8.0 17.7 0.00 0.00 0.00 33 1011.6
20260507200819 12 304 14.5 27.4 0.00 0.00 0.00 33 1011.6
20260507200315 12 352 8.0 17.7 0.00 0.00 0.00 34 1011.5
20260507195811 11 293 11.3 17.7 0.00 0.00 0.00 35 1011.7
20260507195309 11 17 9.7 14.5 0.00 0.00 0.00 36 1011.6
20260507194806 11 329 12.9 22.5 0.00 0.00 0.00 36 1011.8
20260507194302 10 188 3.2 9.7 0.00 0.00 0.00 36 1011.7
20260507193758 11 264 6.4 17.7 0.00 0.00 0.00 36 1011.7
20260507193255 11 4 11.3 17.7 0.00 0.00 0.00 35 1011.9
20260507192751 11 346 12.9 22.5 0.00 0.00 0.00 36 1011.7
20260507192249 11 286 11.3 20.9 0.00 0.00 0.00 35 1011.7
20260507191744 11 264 16.1 25.7 0.00 0.00 0.00 35 1011.7
20260507191241 11 263 16.1 17.7 0.00 0.00 0.00 35 1011.8
20260507190738 11 341 14.5 20.9 0.00 0.00 0.00 36 1011.8
20260507190237 11 343 4.8 11.3 0.00 0.00 0.00 34 1012.0
20260507185735 11 294 0.0 11.3 0.00 0.00 0.00 36 1012.0
20260507185231 10 307 17.7 17.7 0.00 0.00 0.00 37 1012.0
20260507184729 10 245 3.2 14.5 0.00 0.00 0.00 37 1012.0
20260507184227 10 329 14.5 24.1 0.00 0.00 0.00 39 1011.8
20260507183723 10 306 14.5 25.7 0.00 0.00 0.00 39 1012.1
20260507183220 11 238 6.4 25.7 0.00 0.00 0.00 38 1011.9
20260507182718 10 185 8.0 19.3 0.00 0.00 0.00 38 1012.2
20260507182212 10 174 0.0 19.3 0.00 0.00 0.00 38 1012.2
20260507181710 10 272 19.3 30.6 0.00 0.00 0.00 36 1012.1
20260507181206 11 263 3.2 11.3 0.00 0.00 0.00 37 1012.1
20260507180702 10 110 0.0 6.4 0.00 0.00 0.00 38 1012.4
20260507180200 10 8 4.8 12.9 0.00 0.00 0.00 40 1012.3
20260507175655 10 328 17.7 27.4 0.00 0.00 0.00 39 1012.3
20260507175153 10 258 4.8 14.5 0.00 0.00 0.00 41 1012.2
20260507174650 9 34 8.0 17.7 0.00 0.00 0.00 40 1012.3
20260507174148 10 317 1.6 6.4 0.00 0.00 0.00 38 1012.6
20260507173645 10 315 4.8 12.9 0.00 0.00 0.00 39 1012.5
20260507173141 9 356 8.0 14.5 0.00 0.00 0.00 40 1012.6
20260507172638 9 349 17.7 24.1 0.00 0.00 0.00 39 1012.7
20260507172136 10 317 8.0 14.5 0.00 0.00 0.00 39 1012.7
20260507171635 10 276 11.3 11.3 0.00 0.00 0.00 40 1012.6
20260507171133 9 320 17.7 19.3 0.00 0.00 0.00 39 1012.8
20260507170630 9 54 9.7 14.5 0.00 0.00 0.00 40 1012.8
20260507170127 10 206 1.6 8.0 0.00 0.00 0.00 42 1012.9
20260507165622 8 350 4.8 12.9 0.00 0.00 0.00 43 1012.8
20260507165119 8 321 3.2 9.7 0.00 0.00 0.00 44 1013.0
20260507164615 8 344 11.3 11.3 0.00 0.00 0.00 45 1013.3
20260507164112 8 317 6.4 14.5 0.00 0.00 0.00 45 1013.1
20260507163609 8 330 16.1 25.7 0.00 0.00 0.00 46 1013.2
20260507163107 8 319 14.5 32.2 0.00 0.00 0.00 45 1013.0
20260507162602 8 50 4.8 11.3 0.00 0.00 0.00 42 1013.1
20260507162059 8 311 12.9 16.1 0.00 0.00 0.00 43 1013.1
20260507161555 8 335 8.0 20.9 0.00 0.00 0.00 43 1013.3
20260507161052 9 210 3.2 12.9 0.00 0.00 0.00 41 1013.0
20260507160548 8 327 6.4 17.7 0.00 0.00 0.00 42 1013.3
20260507160044 8 267 8.0 19.3 0.00 0.00 0.00 43 1013.3
20260507155540 7 300 8.0 17.7 0.00 0.00 0.00 44 1013.3
20260507155037 8 324 11.3 16.1 0.00 0.00 0.00 44 1013.2
20260507154534 8 337 8.0 24.1 0.00 0.00 0.00 46 1013.4
20260507154031 8 8 4.8 8.0 0.00 0.00 0.00 44 1013.5
20260507153528 8 286 12.9 20.9 0.00 0.00 0.00 48 1013.5
20260507153024 8 298 3.2 16.1 0.00 0.00 0.00 47 1013.5
20260507152520 7 220 6.4 14.5 0.00 0.00 0.00 50 1013.5
20260507152017 7 266 14.5 17.7 0.00 0.00 0.00 48 1013.6
20260507151513 7 299 8.0 16.1 0.00 0.00 0.00 48 1013.6
20260507151010 7 60 1.6 12.9 0.00 0.00 0.00 50 1013.6
20260507150507 7 269 4.8 14.5 0.00 0.00 0.00 51 1013.6
20260507150004 7 275 11.3 17.7 0.00 0.00 0.00 51 1013.7
20260507145458 7 1 12.9 22.5 0.00 0.00 0.00 51 1013.8
20260507144956 7 3 8.0 16.1 0.00 0.00 0.00 52 1013.8
20260507144453 7 342 8.0 19.3 0.00 0.00 0.00 53 1014.1
20260507143949 7 272 8.0 17.7 0.00 0.00 0.00 53 1013.8
20260507143448 7 256 11.3 22.5 0.00 0.00 0.00 54 1014.1
20260507142944 6 312 8.0 17.7 0.00 0.00 0.00 56 1014.1
20260507142439 6 265 12.9 20.9 0.00 0.00 0.00 55 1014.0
20260507141937 6 269 6.4 14.5 0.00 0.00 0.00 57 1014.2
20260507141433 7 277 8.0 16.1 0.00 0.00 0.00 57 1014.2
20260507140930 6 305 9.7 14.5 0.00 0.00 0.00 58 1014.2
20260507140426 6 258 6.4 11.3 0.00 0.00 0.00 58 1014.2
20260507135924 6 236 6.4 8.0 0.00 0.00 0.00 62 1014.3
20260507135421 6 238 3.2 8.0 0.00 0.00 0.00 63 1014.6
20260507134918 6 155 3.2 4.8 0.00 0.00 0.00 65 1014.4
20260507134414 6 254 0.0 4.8 0.00 0.00 0.00 66 1014.4
20260507133910 6 241 3.2 6.4 0.00 0.00 0.00 67 1014.2
20260507133406 5 326 1.6 8.0 0.00 0.00 0.00 69 1014.4
20260507132905 5 200 1.6 3.2 0.00 0.00 0.00 69 1014.5
20260507132401 4 307 9.7 11.3 0.00 0.00 0.00 70 1014.7
20260507131858 4 241 4.8 16.1 0.00 0.00 0.00 71 1014.5
20260507131355 3 259 6.4 19.3 0.00 0.00 0.00 71 1014.4
20260507130852 4 248 9.7 12.9 0.00 0.00 0.00 71 1014.4
20260507130349 4 158 4.8 9.7 0.00 0.00 0.00 71 1014.3
20260507125848 3 220 4.8 9.7 0.00 0.00 0.00 72 1014.3
20260507125345 3 250 12.9 12.9 0.00 0.00 0.00 74 1014.5
20260507124842 3 259 4.8 9.7 0.00 0.00 0.00 75 1014.4
20260507124338 3 202 4.8 8.0 0.00 0.00 0.00 77 1014.5
20260507123837 2 252 1.6 8.0 0.00 0.00 0.00 77 1014.4
20260507123334 2 246 6.4 11.3 0.00 0.00 0.00 77 1014.4
20260507122830 2 230 0.0 9.7 0.00 0.00 0.00 77 1014.5
20260507122325 2 214 3.2 8.0 0.00 0.00 0.00 77 1014.4
20260507121823 2 260 6.4 8.0 0.00 0.00 0.00 77 1014.6
20260507121317 1 253 4.8 8.0 0.00 0.00 0.00 77 1014.5
20260507120814 2 250 6.4 6.4 0.00 0.00 0.00 76 1014.4
20260507120310 2 218 3.2 8.0 0.00 0.00 0.00 76 1014.4
20260507115807 2 229 0.0 4.8 0.00 0.00 0.00 77 1014.4
20260507115306 1 208 3.2 3.2 0.00 0.00 0.00 78 1014.6
20260507114759 1 200 0.0 4.8 0.00 0.00 0.00 79 1014.4
20260507114256 1 237 3.2 4.8 0.00 0.00 0.00 78 1014.3
20260507113754 1 200 0.0 3.2 0.00 0.00 0.00 78 1014.2
20260507113250 1 245 0.0 3.2 0.00 0.00 0.00 77 1014.1
20260507112748 1 177 0.0 0.0 0.00 0.00 0.00 80 1014.1
20260507112244 1 171 0.0 0.0 0.00 0.00 0.00 82 1014.1
20260507111743 0 165 0.0 3.2 0.00 0.00 0.00 83 1014.2
20260507111239 0 160 0.0 1.6 0.00 0.00 0.00 84 1014.1
20260507110735 0 260 0.0 0.0 0.00 0.00 0.00 84 1014.1
20260507110231 0 172 0.0 4.8 0.00 0.00 0.00 84 1014.1
20260507105728 0 246 4.8 4.8 0.00 0.00 0.00 84 1014.1
20260507105224 0 232 3.2 6.4 0.00 0.00 0.00 83 1014.1
20260507104722 0 255 4.8 6.4 0.00 0.00 0.00 83 1014.0
20260507104218 0 241 3.2 4.8 0.00 0.00 0.00 82 1014.1
20260507103714 0 269 0.0 4.8 0.00 0.00 0.00 82 1014.1
20260507103211 0 230 3.2 8.0 0.00 0.00 0.00 81 1014.0
20260507102707 0 250 6.4 8.0 0.00 0.00 0.00 81 1014.1
20260507102204 0 252 8.0 8.0 0.00 0.00 0.00 80 1014.1
20260507101700 0 250 3.2 8.0 0.00 0.00 0.00 80 1014.0
20260507101155 0 238 3.2 9.7 0.00 0.00 0.00 80 1014.1
20260507100653 0 256 6.4 8.0 0.00 0.00 0.00 80 1014.1
20260507100151 0 261 8.0 11.3 0.00 0.00 0.00 80 1014.1
20260507095649 0 254 9.7 11.3 0.00 0.00 0.00 80 1014.1
20260507095145 0 225 4.8 9.7 0.00 0.00 0.00 80 1014.2
20260507094642 0 226 3.2 9.7 0.00 0.00 0.00 81 1014.1
20260507094138 0 226 4.8 11.3 0.00 0.00 0.00 81 1014.3
20260507093636 0 245 8.0 11.3 0.00 0.00 0.00 81 1014.3
20260507093135 0 170 3.2 8.0 0.00 0.00 0.00 81 1014.2
20260507092631 0 236 6.4 8.0 0.00 0.00 0.00 80 1014.0
20260507092127 0 245 4.8 8.0 0.00 0.00 0.00 80 1014.3
20260507091624 0 226 4.8 8.0 0.00 0.00 0.00 79 1014.1
20260507091120 0 248 3.2 11.3 0.00 0.00 0.00 78 1014.3
20260507090616 0 257 4.8 8.0 0.00 0.00 0.00 78 1014.2
20260507090113 0 228 3.2 8.0 0.00 0.00 0.00 78 1014.2
20260507085610 0 207 0.0 1.6 0.00 0.00 0.00 78 1014.2
20260507085107 0 207 1.6 4.8 0.00 0.00 0.00 78 1014.2
20260507084604 0 221 0.0 6.4 0.00 0.00 0.00 78 1014.4
20260507084101 0 259 3.2 3.2 0.00 0.00 0.00 77 1014.2
20260507083557 0 215 0.0 1.6 0.00 0.00 0.00 77 1014.4
20260507083054 0 206 0.0 3.2 0.00 0.00 0.00 77 1014.1
20260507082550 1 214 0.0 4.8 0.00 0.00 0.00 77 1014.2
20260507082047 1 209 0.0 6.4 0.00 0.00 0.00 77 1014.1
20260507081543 1 190 3.2 6.4 0.00 0.00 0.00 77 1014.1
20260507081040 1 233 3.2 6.4 0.00 0.00 0.00 77 1014.2
20260507080535 1 226 3.2 6.4 0.00 0.00 0.00 77 1014.0
20260507080032 1 259 6.4 6.4 0.00 0.00 0.00 77 1014.2
20260507075527 1 259 3.2 8.0 0.00 0.00 0.00 76 1014.2
20260507075024 1 266 1.6 4.8 0.00 0.00 0.00 76 1014.4
20260507074521 1 254 1.6 4.8 0.00 0.00 0.00 76 1014.3
20260507074020 1 250 3.2 4.8 0.00 0.00 0.00 75 1014.4
20260507073515 1 270 0.0 3.2 0.00 0.00 0.00 76 1014.4
20260507073012 1 205 0.0 3.2 0.00 0.00 0.00 75 1014.4
20260507072510 1 210 3.2 4.8 0.00 0.00 0.00 75 1014.3
20260507072006 2 266 0.0 6.4 0.00 0.00 0.00 75 1014.5
20260507071504 2 245 4.8 4.8 0.00 0.00 0.00 75 1014.3
20260507071000 2 221 3.2 4.8 0.00 0.00 0.00 74 1014.7
20260507070458 2 186 0.0 1.6 0.00 0.00 0.00 74 1014.8
20260507065954 2 207 1.6 3.2 0.00 0.00 0.00 74 1014.7
20260507065451 2 200 0.0 3.2 0.00 0.00 0.00 73 1014.6
20260507064948 2 117 0.0 0.0 0.00 0.00 0.00 73 1014.7
20260507064446 2 171 0.0 1.6 0.00 0.00 0.00 73 1014.7
20260507063944 2 144 3.2 3.2 0.00 0.00 0.00 73 1014.7
20260507063440 2 177 0.0 3.2 0.00 0.00 0.00 72 1014.9
20260507062937 2 254 0.0 0.0 0.00 0.00 0.00 72 1014.8
20260507062435 2 186 0.0 1.6 0.00 0.00 0.00 73 1015.0
20260507061932 2 191 3.2 3.2 0.00 0.00 0.00 73 1015.0
20260507061430 2 193 0.0 1.6 0.00 0.00 0.00 73 1014.8
20260507060928 2 140 0.0 3.2 0.00 0.00 0.00 74 1014.9
20260507060425 2 193 0.0 3.2 0.00 0.00 0.00 74 1015.2
20260507055921 2 177 1.6 3.2 0.00 0.00 0.00 75 1015.0
20260507055417 2 176 3.2 3.2 0.00 0.00 0.00 75 1015.1
20260507054914 2 166 3.2 3.2 0.00 0.00 0.00 75 1015.3
20260507054410 2 205 1.6 1.6 0.00 0.00 0.00 75 1015.1
20260507053907 2 207 0.0 1.6 0.00 0.00 0.00 74 1015.3
20260507053405 2 186 1.6 3.2 0.00 0.00 0.00 74 1015.2
20260507052904 2 181 3.2 4.8 0.00 0.00 0.00 73 1015.2
20260507052400 2 178 3.2 3.2 0.00 0.00 0.00 72 1015.2
20260507051857 3 152 3.2 4.8 0.00 0.00 0.00 72 1015.3
20260507051355 3 163 3.2 3.2 0.00 0.00 0.00 72 1015.3
20260507050851 3 194 1.6 3.2 0.00 0.00 0.00 71 1015.4
20260507050348 3 151 0.0 1.6 0.00 0.00 0.00 71 1015.3
20260507045845 3 164 3.2 3.2 0.00 0.00 0.00 70 1015.5
20260507045341 3 237 0.0 3.2 0.00 0.00 0.00 69 1015.3
20260507044839 3 207 0.0 3.2 0.00 0.00 0.00 67 1015.4
20260507044335 4 200 1.6 1.6 0.00 0.00 0.00 66 1015.6
20260507043831 4 126 0.0 3.2 0.00 0.00 0.00 66 1015.5
20260507043328 4 125 3.2 4.8 0.00 0.00 0.00 66 1015.3
20260507042824 4 126 3.2 4.8 0.00 0.00 0.00 66 1015.5
20260507042320 5 140 3.2 4.8 0.00 0.00 0.00 65 1015.5
20260507041817 5 110 0.0 3.2 0.00 0.00 0.00 64 1015.4
20260507041313 5 159 0.0 3.2 0.00 0.00 0.00 63 1015.4
20260507040811 5 165 1.6 3.2 0.00 0.00 0.00 63 1015.6
20260507040307 5 164 3.2 3.2 0.00 0.00 0.00 62 1015.9
20260507035803 5 212 1.6 3.2 0.00 0.00 0.00 63 1015.6
20260507035258 5 164 0.0 4.8 0.00 0.00 0.00 62 1015.9
20260507034756 5 163 3.2 3.2 0.00 0.00 0.00 61 1015.8
20260507034253 5 174 0.0 3.2 0.00 0.00 0.00 61 1015.8
20260507033751 5 212 0.0 3.2 0.00 0.00 0.00 61 1015.9
20260507033248 5 210 0.0 3.2 0.00 0.00 0.00 60 1015.8
20260507032745 5 200 1.6 3.2 0.00 0.00 0.00 58 1015.9
20260507032241 5 200 1.6 3.2 0.00 0.00 0.00 58 1015.8
20260507031738 5 214 1.6 3.2 0.00 0.00 0.00 58 1015.9
20260507031235 5 249 0.0 6.4 0.00 0.00 0.00 58 1016.1
20260507030732 5 241 3.2 4.8 0.00 0.00 0.00 58 1016.3
20260507030229 5 263 1.6 4.8 0.00 0.00 0.00 58 1016.2
20260507025726 6 253 0.0 6.4 0.00 0.00 0.00 58 1016.4
20260507025223 5 277 4.8 6.4 0.00 0.00 0.00 57 1016.1
20260507024721 5 300 4.8 8.0 0.00 0.00 0.00 57 1016.3
20260507024218 6 275 4.8 6.4 0.00 0.00 0.00 57 1016.2
20260507023714 6 272 3.2 8.0 0.00 0.00 0.00 57 1016.1
20260507023211 6 280 6.4 6.4 0.00 0.00 0.00 57 1016.2
20260507022708 5 275 4.8 6.4 0.00 0.00 0.00 57 1016.2
20260507022204 6 305 3.2 4.8 0.00 0.00 0.00 57 1016.5
20260507021701 6 323 3.2 4.8 0.00 0.00 0.00 57 1016.2
20260507021155 6 316 4.8 9.7 0.00 0.00 0.00 56 1016.2
20260507020655 6 294 4.8 8.0 0.00 0.00 0.00 56 1016.2
20260507020150 6 314 1.6 4.8 0.00 0.00 0.00 56 1016.2
20260507015649 6 302 3.2 9.7 0.00 0.00 0.00 56 1016.1
20260507015145 6 309 3.2 8.0 0.00 0.00 0.00 56 1015.9
20260507014642 6 333 4.8 9.7 0.00 0.00 0.00 55 1016.1
20260507014138 6 278 1.6 6.4 0.00 0.00 0.00 55 1016.0
20260507013635 6 9 6.4 12.9 0.00 0.00 0.00 55 1016.1
20260507013132 6 300 3.2 8.0 0.00 0.00 0.00 54 1016.0
20260507012630 6 301 9.7 9.7 0.00 0.00 0.00 55 1016.0
20260507012125 6 304 4.8 14.5 0.00 0.00 0.00 55 1016.2
20260507011623 6 273 14.5 14.5 0.00 0.00 0.00 55 1016.2
20260507011119 6 277 9.7 9.7 0.00 0.00 0.00 55 1016.3
20260507010614 6 328 6.4 11.3 0.00 0.00 0.00 54 1016.0
20260507010110 6 265 8.0 19.3 0.00 0.00 0.00 54 1016.2
20260507005608 6 339 9.7 11.3 0.00 0.00 0.00 54 1016.0
20260507005104 6 273 12.9 14.5 0.00 0.00 0.00 54 1016.0
20260507004601 6 280 14.5 22.5 0.00 0.00 0.00 54 1016.0
20260507004058 6 338 8.0 12.9 0.00 0.00 0.00 54 1016.1
20260507003554 6 275 14.5 14.5 0.00 0.00 0.00 54 1015.9
20260507003049 6 290 12.9 14.5 0.00 0.00 0.00 53 1015.9
20260507002546 6 341 6.4 17.7 0.00 0.00 0.00 53 1015.9
20260507002042 6 293 9.7 22.5 0.00 0.00 0.00 53 1015.9
20260507001539 6 353 12.9 19.3 0.00 0.00 0.00 53 1015.9
20260507001036 6 318 9.7 17.7 0.00 0.00 0.00 53 1015.8
20260507000532 6 274 11.3 24.1 0.00 0.00 0.00 53 1016.0
20260507000028 6 311 17.7 22.5 0.00 0.00 0.00 53 1015.8
20260506235526 6 274 12.9 22.5 0.00 0.00 0.00 53 1016.0
20260506235021 6 314 11.3 16.1 0.00 0.00 0.00 53 1015.7
20260506234519 6 343 6.4 19.3 0.00 0.00 0.00 53 1015.9
20260506234016 6 307 9.7 16.1 0.00 0.00 0.00 53 1015.9
20260506233512 6 306 6.4 19.3 0.00 0.00 0.00 53 1016.0
20260506233009 6 352 19.3 22.5 0.00 0.00 0.00 53 1016.0
20260506232505 6 315 16.1 22.5 0.00 0.00 0.00 52 1015.9
20260506232001 6 315 24.1 24.1 0.00 0.00 0.00 53 1016.1
20260506231459 6 315 14.5 25.7 0.00 0.00 0.00 53 1016.1
20260506230956 6 302 17.7 27.4 0.00 0.00 0.00 53 1016.1
20260506230452 6 303 17.7 22.5 0.00 0.00 0.00 54 1016.0
20260506225949 6 295 17.7 27.4 0.00 0.00 0.00 53 1016.1
20260506225446 6 303 16.1 30.6 0.00 0.00 0.00 53 1016.1
20260506224943 6 270 17.7 27.4 0.00 0.00 0.00 53 1016.2
20260506224440 6 297 6.4 17.7 0.00 0.00 0.00 54 1016.2
20260506223936 6 290 8.0 25.7 0.00 0.00 0.00 54 1016.2
20260506223432 6 288 8.0 24.1 0.00 0.00 0.00 55 1016.2
20260506222930 6 327 12.9 17.7 0.00 0.00 0.00 55 1016.2
20260506222426 6 302 19.3 27.4 0.00 0.00 0.00 55 1016.4
20260506221923 6 257 16.1 24.1 0.00 0.00 0.00 55 1016.1
20260506221420 6 286 16.1 29.0 0.00 0.00 0.00 55 1016.2
20260506220918 6 269 11.3 19.3 0.00 0.00 0.00 54 1016.4
20260506220413 6 277 11.3 22.5 0.00 0.00 0.00 55 1016.3
20260506215910 6 311 9.7 22.5 0.00 0.00 0.00 54 1016.3
20260506215406 6 304 9.7 25.7 0.00 0.00 0.00 55 1016.3
20260506214902 6 275 11.3 19.3 0.00 0.00 0.00 55 1016.3
20260506214359 6 298 9.7 30.6 0.00 0.00 0.00 55 1016.2
20260506213857 6 316 17.7 24.1 0.00 0.00 0.00 55 1016.0
20260506213354 6 309 14.5 22.5 0.00 0.00 0.00 55 1016.1
20260506212851 6 274 16.1 32.2 0.00 0.00 0.00 55 1016.3
20260506212347 6 304 11.3 32.2 0.00 0.00 0.00 55 1016.1
20260506211842 6 267 27.4 27.4 0.00 0.00 0.00 55 1016.1
20260506211338 6 348 12.9 33.8 0.00 0.00 0.00 56 1016.1
20260506210836 6 343 16.1 24.1 0.00 0.00 0.00 55 1016.3
20260506210333 6 337 6.4 27.4 0.00 0.00 0.00 55 1016.0
20260506205830 6 345 12.9 24.1 0.00 0.00 0.00 55 1016.2
20260506205326 6 297 12.9 29.0 0.00 0.00 0.00 55 1016.2
20260506204822 6 286 17.7 27.4 0.00 0.00 0.00 54 1016.3
20260506204320 6 279 11.3 25.7 0.00 0.00 0.00 54 1016.0
20260506203818 6 313 20.9 20.9 0.00 0.00 0.00 54 1016.2